Kansas City International, MO

11:37 AM CDT on August 23, 2017 (GMT -0500)
Kansas City International

Weather History for KMCI - December, 2012

Change the Weather History Date:

Sunday, December 23, 2012

  Actual Average Record
Temperature  
Mean Temperature 26 °F 30 °F  
Max Temperature 32 °F 38 °F 67 °F (1933)
Min Temperature 19 °F 21 °F -23 °F (1989)
Degree Days  
Heating Degree Days 39 35  
Month to date heating degree days 561 753  
Since 1 July heating degree days 1508 1755  
Cooling Degree Days 0 0  
Month to date cooling degree days 0 0  
Year to date cooling degree days 1839 1360  
Moisture  
Dew Point 19 °F    
Average Humidity 78    
Maximum Humidity 92    
Minimum Humidity 63    
Precipitation  
Precipitation 0.00 in 0.05 in 0.66 in (1918)
Month to date precipitation 1.23 1.23  
Year to date precipitation 22.17 38.56  
Snow  
Snow 0.00 in 0.20 in 7.40 in (1918)
Month to date snowfall 2.5 3.5  
Since 1 July snowfall 2.5 4.9  
Snow Depth 1.00 in    
Sea Level Pressure  
Sea Level Pressure 29.97 in    
Wind  
Wind Speed 7 mph (North)    
Max Wind Speed 12 mph    
Max Gust Speed 14 mph    
Visibility 6 miles    
Events      
T = Trace of Precipitation, MM = Missing Value Source: NWS Daily Summary

Daily Weather History Graph

Daily Weather History Graph

Search for Another Location

Airport or City:

Trip Planner

Search our weather history database for the weather conditions in past years. The results will help you decide how hot, cold, wet, or windy it might be!

Date:

Astronomy

Dec. 23, 2012 Rise Set
Actual Time 7:36 AM CST 5:00 PM CST
Civil Twilight 7:06 AM CST 5:30 PM CST
Nautical Twilight 6:32 AM CST 6:04 PM CST
Astronomical Twilight 5:59 AM CST 6:36 PM CST
Moon 1:50 PM CST 3:20 AM CST
Length of Visible Light 10h 24m
Length of Day
9h 24m
Waxing Gibbous, 82% of the Moon is Illuminated
Dec 23
Waxing Gibbous
Dec 28
Full
Jan 4
Last Quarter
Jan 11
New
Jan 18
First Quarter

Hourly Weather History & Observations

Time (CST) Temp. Windchill Dew Point Humidity Pressure Visibility Wind Dir Wind Speed Gust Speed Precip Events Conditions
12:53 AM 28.0 °F 20.8 °F 23.0 °F 81% 29.96 in 10.0 mi NW 6.9 mph - N/A   Clear
1:53 AM 27.0 °F 18.7 °F 21.9 °F 81% 29.97 in 10.0 mi NNW 8.1 mph - N/A   Clear
2:53 AM 26.1 °F 16.8 °F 21.9 °F 84% 29.97 in 7.0 mi NNW 9.2 mph - N/A   Partly Cloudy
3:53 AM 23.0 °F 14.7 °F 19.9 °F 88% 29.97 in 5.0 mi NNW 6.9 mph - N/A   Partly Cloudy
4:53 AM 21.9 °F 14.5 °F 19.0 °F 89% 29.96 in 4.0 mi NNW 5.8 mph - N/A   Partly Cloudy
5:53 AM 21.0 °F 13.4 °F 18.0 °F 88% 29.98 in 3.0 mi NNW 5.8 mph - N/A   Clear
6:53 AM 19.9 °F 10.1 °F 17.1 °F 89% 29.99 in 5.0 mi North 8.1 mph - N/A   Clear
7:53 AM 19.0 °F 10.0 °F 16.0 °F 88% 30.01 in 5.0 mi North 6.9 mph - N/A   Partly Cloudy
8:53 AM 21.0 °F 10.6 °F 17.1 °F 85% 30.01 in 5.0 mi NNE 9.2 mph - N/A   Scattered Clouds
9:53 AM 23.0 °F 13.9 °F 17.1 °F 78% 30.03 in 5.0 mi NNE 8.1 mph - N/A   Haze
10:53 AM 24.8 °F 17.9 °F 17.6 °F 74% 29.98 in 6.0 mi NNE 5.8 mph - N/A   Haze
11:53 AM 28.0 °F 24.2 °F 19.0 °F 69% 29.96 in 7.0 mi NE 3.5 mph - N/A   Scattered Clouds
12:53 PM 28.9 °F 21.9 °F 19.9 °F 69% 29.95 in 7.0 mi NNE 6.9 mph - N/A   Scattered Clouds
1:53 PM 30.0 °F 24.1 °F 19.9 °F 66% 29.94 in 7.0 mi North 5.8 mph - N/A   Scattered Clouds
2:53 PM 30.9 °F 24.3 °F 21.0 °F 67% 29.94 in 6.0 mi North 6.9 mph - N/A   Haze
3:53 PM 30.0 °F 23.2 °F 21.0 °F 69% 29.95 in 7.0 mi North 6.9 mph - N/A   Mostly Cloudy
4:53 PM 28.0 °F 21.7 °F 21.0 °F 75% 29.95 in 7.0 mi North 5.8 mph - N/A   Overcast
5:53 PM 27.0 °F 20.5 °F 19.9 °F 75% 29.97 in 8.0 mi NNW 5.8 mph - N/A   Overcast
6:53 PM 26.1 °F 20.5 °F 19.0 °F 75% 29.96 in 7.0 mi North 4.6 mph - N/A   Overcast
7:53 PM 26.1 °F 20.5 °F 19.0 °F 75% 29.99 in 8.0 mi WNW 4.6 mph - N/A   Overcast
8:53 PM 25.0 °F 19.3 °F 19.0 °F 78% 29.99 in 7.0 mi NW 4.6 mph - N/A   Overcast
9:53 PM 25.0 °F 17.1 °F 19.0 °F 78% 29.99 in 7.0 mi NW 6.9 mph - N/A   Mostly Cloudy
10:53 PM 25.0 °F 18.1 °F 19.9 °F 81% 29.98 in 7.0 mi NNW 5.8 mph - N/A   Mostly Cloudy
11:53 PM 24.1 °F 16.0 °F 19.0 °F 81% 29.97 in 6.0 mi NNW 6.9 mph - N/A   Mostly Cloudy